Middletown, PA

6:16 AM EST on January 21, 2017 (GMT -0500)
Harrisburg International Airport

Weather History for KMDT - December, 2013

Change the Weather History Date:

Saturday, December 28, 2013

  Actual Average Record
Temperature  
Mean Temperature 39 °F 31 °F  
Max Temperature 56 °F 38 °F 65 °F (1982)
Min Temperature 22 °F 24 °F 0 °F (1950)
Degree Days  
Heating Degree Days 26 34  
Month to date heating degree days 855 861  
Since 1 July heating degree days 1908 1900  
Cooling Degree Days 0 0  
Month to date cooling degree days 0 0  
Year to date cooling degree days 1105 1002  
Moisture  
Dew Point 24 °F    
Average Humidity 61    
Maximum Humidity 92    
Minimum Humidity 30    
Precipitation  
Precipitation 0.00 in 0.09 in 1.04 in (1942)
Month to date precipitation 2.93 2.98  
Year to date precipitation 41.82 40.49  
Snow  
Snow 0.00 in 0.20 in 6.80 in (1967)
Month to date snowfall 9.2 4.4  
Since 1 July snowfall 9.2 5.0  
Snow Depth 0.00 in    
Sea Level Pressure  
Sea Level Pressure 30.19 in    
Wind  
Wind Speed 3 mph (SW)    
Max Wind Speed 17 mph    
Max Gust Speed 22 mph    
Visibility 9 miles    
Events      
T = Trace of Precipitation, MM = Missing Value Source: NWS Daily Summary

Daily Weather History Graph

Daily Weather History Graph

Search for Another Location

Airport or City:

Trip Planner

Search our weather history database for the weather conditions in past years. The results will help you decide how hot, cold, wet, or windy it might be!

Date:

Astronomy

Dec. 28, 2013 Rise Set
Actual Time 7:28 AM EST 4:48 PM EST
Civil Twilight 6:58 AM EST 5:19 PM EST
Nautical Twilight 6:23 AM EST 5:53 PM EST
Astronomical Twilight 5:50 AM EST 6:26 PM EST
Moon 3:03 AM EST (12/28) 1:38 PM EST (12/28)
Length of Visible Light 10h 21m
Length of Day
9h 20m
Waning Crescent, 19% of the Moon is Illuminated
Dec 28
Waning Crescent
Jan 1
New
Jan 7
First Quarter
Jan 15
Full
Jan 24
Last Quarter

Hourly Weather History & Observations

Time (EST) Temp. Windchill Dew Point Humidity Pressure Visibility Wind Dir Wind Speed Gust Speed Precip Events Conditions
12:56 AM 24.1 °F - 19.9 °F 84% 30.29 in 9.0 mi Calm Calm - N/A   Clear
1:56 AM 24.1 °F - 19.0 °F 81% 30.30 in 8.0 mi Calm Calm - N/A   Clear
2:56 AM 23.0 °F - 19.0 °F 85% 30.28 in 7.0 mi Calm Calm - N/A   Clear
3:56 AM 23.0 °F - 19.0 °F 85% 30.25 in 8.0 mi Calm Calm - N/A   Clear
4:56 AM 23.0 °F - 19.9 °F 88% 30.24 in 8.0 mi Calm Calm - N/A   Clear
5:56 AM 21.9 °F - 18.0 °F 85% 30.26 in 8.0 mi Calm Calm - N/A   Partly Cloudy
6:56 AM 24.1 °F - 21.0 °F 88% 30.26 in 8.0 mi Calm Calm - N/A   Mostly Cloudy
7:56 AM 27.0 °F - 24.1 °F 89% 30.27 in 6.0 mi Calm Calm - N/A   Mostly Cloudy
8:56 AM 34.0 °F 31.0 °F 27.0 °F 75% 30.26 in 8.0 mi Variable 3.5 mph - N/A   Mostly Cloudy
9:56 AM 37.9 °F - 26.1 °F 62% 30.25 in 10.0 mi Calm Calm - N/A   Scattered Clouds
10:56 AM 42.1 °F 40.2 °F 25.0 °F 51% 30.23 in 10.0 mi NW 3.5 mph - N/A   Partly Cloudy
11:56 AM 48.0 °F - 25.0 °F 41% 30.18 in 10.0 mi Calm Calm - N/A   Clear
12:56 PM 50.0 °F - 26.1 °F 39% 30.15 in 10.0 mi Variable 3.5 mph - N/A   Partly Cloudy
1:56 PM 53.1 °F - 25.0 °F 34% 30.12 in 10.0 mi Calm Calm - N/A   Partly Cloudy
2:56 PM 55.0 °F - 24.1 °F 30% 30.12 in 10.0 mi SW 10.4 mph - N/A   Partly Cloudy
3:56 PM 52.0 °F - 25.0 °F 35% 30.13 in 10.0 mi SW 8.1 mph - N/A   Scattered Clouds
4:56 PM 51.1 °F - 25.0 °F 36% 30.13 in 10.0 mi SW 12.7 mph - N/A   Mostly Cloudy
5:56 PM 48.9 °F - 26.1 °F 41% 30.13 in 10.0 mi SW 15.0 mph - N/A   Mostly Cloudy
6:56 PM 48.9 °F - 25.0 °F 39% 30.13 in 10.0 mi SW 13.8 mph - N/A   Mostly Cloudy
7:56 PM 48.0 °F - 25.0 °F 41% 30.13 in 10.0 mi SW 10.4 mph 19.6 mph N/A   Mostly Cloudy
8:56 PM 46.9 °F - 25.0 °F 42% 30.12 in 10.0 mi Calm Calm - N/A   Overcast
9:56 PM 37.0 °F - 26.1 °F 65% 30.12 in 10.0 mi Calm Calm - N/A   Overcast
10:56 PM 39.9 °F - 25.0 °F 55% 30.11 in 10.0 mi Calm Calm - N/A   Overcast
11:56 PM 36.0 °F - 26.1 °F 67% 30.09 in 10.0 mi Calm Calm - N/A   Overcast